Regional Weather Roundup
Issued by NWS Little Rock, AR

Home | Current Version | Previous Version | Text Only | Print | Product List | Glossary Off
Versions: 1 2 3 4 5 6 7 8 9 10 11 12 13 14 15 16 17 18 19 20 21 22 23 24 25 26 27 28 29 30 31 32 33 34 35 36 37 38 39 40 41 42 43 44 45 46 47 48 49

000
ASUS44 KLZK 020505
RWRLZK

WEATHER ROUNDUP FOR ARKANSAS
NATIONAL WEATHER SERVICE LITTLE ROCK AR
1100 PM CST SUN MAR 01 2015

NOTE: "FAIR" INDICATES FEW OR NO CLOUDS BELOW 12,000 FEET WITH NO
SIGNIFICANT WEATHER AND/OR OBSTRUCTIONS TO VISIBILITY.

ARZ001-003-010-029-020600-
NORTHWEST ARKANSAS

CITY           SKY/WX    TMP DP  RH WIND       PRES   REMARKS
FAYETTEVILLE   CLOUDY    31  30  96 NE5       30.43R FOG     WCI  26
FORT SMITH     CLOUDY    36  32  85 W7        30.44R
HARRISON       CLOUDY    30  28  92 N8        30.43R WCI  22
BENTONVILLE    CLOUDY    28  25  86 N10       30.45R WCI  19
ROGERS         CLOUDY    28  26  92 NE7       30.45R WCI  21
SILOAM SPGS    CLOUDY    28  21  74 CALM      30.46R
HIGHFILL       CLOUDY    29  25  85 N7        30.44R WCI  22
$$

ARZ004-005-016-020600-
NORTH CENTRAL ARKANSAS

CITY           SKY/WX    TMP DP  RH WIND       PRES   REMARKS
BATESVILLE     CLOUDY    37  32  81 CALM      30.44R
FLIPPIN        CLOUDY    34  27  75 N7        30.45R WCI  28
MTN HOME       CLOUDY    32  28  85 N6        30.44R WCI  26
$$

ARZ040-041-020600-
WEST CENTRAL ARKANSAS

CITY           SKY/WX    TMP DP  RH WIND       PRES   REMARKS
MENA           CLOUDY    37  36  93 NE6       30.38F
MOUNT IDA      CLOUDY    37  35  92 NW5       30.39R FOG
$$

ARZ009-017-025-026-028-020600-
NORTHEAST ARKANSAS

CITY           SKY/WX    TMP DP  RH WIND       PRES   REMARKS
CORNING        CLOUDY    36  32  87 N8        30.45S
JONESBORO      CLOUDY    37  35  92 N6        30.43R
NEWPORT        CLOUDY    36  35  96 N8        30.45R
WALNUT RIDGE   CLOUDY    36  30  80 N9        30.44R
BLYTHEVILLE    CLOUDY    34  34 100 N9        30.43S FOG     WCI  27
$$

ARZ022-023-033-042-044-020600-
CENTRAL ARKANSAS

CITY           SKY/WX    TMP DP  RH WIND       PRES   REMARKS
LITTLE ROCK    CLOUDY    40  36  86 N7        30.42S
N LITTLE ROCK  CLOUDY    38  37  99 N8        30.42R
JACKSONVILLE   CLOUDY    39  36  91 N3        30.42R
SEARCY         CLOUDY    38  36  92 N6        30.44R
HOT SPRINGS    CLOUDY    40  37  89 CALM      30.40R
RUSSELLVILLE   CLOUDY    39  35  86 N6        30.42S
CLINTON        CLOUDY    37  32  81 N6        30.44F HAZE
$$

ARZ036-020600-
EAST ARKANSAS

CITY           SKY/WX    TMP DP  RH WIND       PRES   REMARKS
WEST MEMPHIS   CLOUDY    36  36 100 NE10      30.41R FOG
$$

ARZ050-053-066-070-073-020600-
SOUTHWEST ARKANSAS

CITY           SKY/WX    TMP DP  RH WIND       PRES   REMARKS
ARKADELPHIA    CLOUDY    41  40  96 N8        30.40R
CAMDEN         CLOUDY    41  37  87 MISG      30.38S
TEXARKANA      CLOUDY    41  41 100 N7        30.37R
EL DORADO      CLOUDY    41  39  93 N8        30.36S
DE QUEEN       CLOUDY    42  38  85 CALM      30.38R
$$

ARZ056-057-069-020600-
SOUTHEAST ARKANSAS

CITY           SKY/WX    TMP DP  RH WIND       PRES   REMARKS
PINE BLUFF     CLOUDY    39  38  96 N9        30.40R
STUTTGART      CLOUDY    39  36  87 N12       30.42R
MONTICELLO     CLOUDY    41  38  89 N6        30.36R

$$





USA.gov is the U.S. government's official web portal to all federal, state and local government web resources and services.